This demonstration page uses our WeatherBlox Daily Observations layout. Learn more.

Left ArrowRight Arrow

39.12711, -84.51439

Hourly Observations for September 1, 2021

Temp ( °F °C ) Dew Point ( °F °C ) Humidity (%) Winds ( mph kmh ) Pressure ( in mb ) Visibility ( mi km ) Precip ( " mm )
12:53 am 00:53 Cloudy 71 21.7 68 20 90 90 NE 8 13 29.68 1005 10 16 0.00 0.00
1:53 am 01:53 Cloudy with Light Rain 70 21.1 68 20 93 93 NNE 6 9 29.67 1005 7 11 0.01 0.25
2:53 am 02:53 Cloudy with Light Rain 70 21.1 68 20 93 93 N 10 17 29.67 1005 5 8 0.05 1.27
3:20 am 03:20 Cloudy with Light Rain 70 21.1 67 19.4 90 90 N 8 13 29.67 1005 8 13 0.01 0.25
3:31 am 03:31 Cloudy with Light Rain 69 20.6 67 19.4 93 93 NNE 7 11 29.67 1005 10 16 0.01 0.25
3:53 am 03:53 Cloudy 69 20.6 67 19.4 93 93 NNE 5 7 29.67 1005 10 16 0.01 0.25
4:12 am 04:12 Cloudy 70 21.1 67 19.4 90 90 NNE 5 7 29.67 1005 10 16 0.00 0.00
4:28 am 04:28 Cloudy with Light Rain 70 21.1 67 19.4 90 90 NNE 5 7 29.67 1005 10 16 0.01 0.25
4:53 am 04:53 Cloudy with Light Rain 70 21.1 67 19.4 90 90 NNE 13 20 29.66 1005 10 16 0.01 0.25
5:53 am 05:53 Cloudy 67 19.4 64 17.8 91 91 N 12 19 29.69 1005 10 16 0.00 0.00
6:24 am 06:24 Cloudy 66 18.9 62 16.7 87 87 N 12 19 29.71 1006 10 16 0.00 0.00
6:53 am 06:53 Cloudy 66 18.9 61 16.1 84 84 NNE 7 11 29.71 1006 10 16 0.00 0.00
7:39 am 07:39 Cloudy 67 19.4 62 16.7 84 84 Calm 29.73 1007 10 16 0.00 0.00
7:53 am 07:53 Cloudy 68 20 62 16.7 81 81 NE 3 6 29.73 1007 10 16 0.00 0.00
8:53 am 08:53 Partly Cloudy 70 21.1 64 17.8 82 82 N 9 15 29.74 1007 10 16 0.00 0.00
9:53 am 09:53 Sunny 74 23.3 64 17.8 71 71 N 9 15 29.75 1007 10 16 0.00 0.00
10:53 am 10:53 Mostly Sunny 74 23.3 62 16.7 67 67 N 14 22 29.78 1009 10 16 0.00 0.00
11:53 am 11:53 Mostly Sunny 78 25.6 64 17.8 62 62 N 14 22 29.79 1009 10 16 0.00 0.00
12:53 pm 12:53 Partly Cloudy 79 26.1 63 17.2 58 58 N 15 24 29.80 1009 10 16 0.00 0.00
1:53 pm 13:53 Mostly Cloudy 80 26.7 63 17.2 56 56 NNE 15 24 29.80 1009 10 16 0.00 0.00
2:53 pm 14:53 Mostly Cloudy 82 27.8 64 17.8 55 55 N 13 20 29.81 1009 10 16 0.00 0.00
3:53 pm 15:53 Mostly Cloudy 81 27.2 63 17.2 54 54 N 16 26 29.81 1009 10 16 0.00 0.00
4:53 pm 16:53 Partly Cloudy 80 26.7 61 16.1 52 52 NNE 16 26 29.81 1010 10 16 0.00 0.00
5:53 pm 17:53 Mostly Cloudy 79 26.1 61 16.1 54 54 N 13 20 29.83 1010 10 16 0.00 0.00
6:53 pm 18:53 Mostly Sunny 79 26.1 60 15.6 52 52 N 12 19 29.84 1011 10 16 0.00 0.00
7:53 pm 19:53 Sunny 76 24.4 57 13.9 52 52 N 12 19 29.86 1011 10 16 0.00 0.00
8:53 pm 20:53 Partly Cloudy 73 22.8 56 13.3 55 55 N 12 19 29.89 1012 10 16 0.00 0.00
9:53 pm 21:53 Mostly Clear 71 21.7 55 12.8 57 57 N 10 17 29.92 1013 10 16 0.00 0.00
10:53 pm 22:53 Clear 68 20 54 12.2 61 61 NE 6 9 29.94 1014 10 16 0.00 0.00
11:53 pm 23:53 Clear 63 17.2 56 13.3 78 78 ENE 3 6 29.96 1014 10 16 0.00 0.00

Powered by AerisWeather